{"data":{"norad_id":64781,"intl_designator":"2025-147AC","name":"STARLINK-34582","alt_names":[],"object_type":"PAYLOAD","status":"ACTIVE","operator":null,"country":"US","launch_date":"2025-07-08","launch_site_code":"AFETR","launch_vehicle":null,"mission":null,"orbit_class":"UNKNOWN","rcs_meters":null,"size_class":null,"mass_kg":null,"dimensions":null,"purposes":["comms"],"wikipedia_slug":null,"has_3d_model":false,"image_url":null,"decayed_at":null,"tle_current":{"epoch":"2026-05-24T16:54:46.183680Z","epoch_age_seconds":96594,"freshness":"FRESH","line1":"1 64781U 25147AC  26144.70470120  .00018446  00000+0  55595-3 0  9997","line2":"2 64781  53.1595 248.6962 0001309  92.1222 267.9930 15.34387748 50331","mean_motion":15.34387748,"eccentricity":0.0001309,"inclination_deg":53.1595,"raan_deg":248.6962,"arg_perigee_deg":92.1222,"mean_anomaly_deg":267.993,"bstar":0.00055595,"rev_number":5033,"period_min":93.848507450413,"perigee_km":461.84418522114,"apogee_km":463.63512672968,"semimajor_km":6840.8766559754,"source":"CELESTRAK","updated_at":"2026-05-25T13:38:20.561107Z"}}}